Tracking 19575 objects as of 20-Feb-2019
HD Live streaming from Space Station
objects crossing your sky now

COSMOS 1814

Track COSMOS 1814 now!
10-day predictions
COSMOS 1814 is classified as:


NORAD ID: 17303
Int'l Code: 1987-006A
Perigee: 764.8 km
Apogee: 799.7 km
Inclination: 74.1 °
Period: 100.3 minutes
Semi major axis: 7153 km
RCS: 2.1989 m2 (large)
Launch date: January 21, 1987
Source: Commonwealth of Independent States (former USSR) (CIS)
Launch site: PLESETSK MISSILE AND SPACE COMPLEX (PKMTR)
aabbcc
Your satellite tracking list
Your tracking list is empty




NASA's NSSDC Master Catalog

Two Line Element Set (TLE):
1 17303U 87006A   19051.21354875  .00000029  00000-0  19124-4 0  9998
2 17303  74.0557 114.9572 0024417 161.6764 252.6003 14.34982140678894
Source of the keplerian elements: AFSPC